"Pseudo-MPEC" for C0J6Q95

Created 2023 Sep 20 16:22:04 UT using Find_Orb

Click here for an explanation of pseudo-MPECs

 
 Astrometry: 
     C0J6Q95* C2023 09 18.31821223 47 53.138+06 08 20.36   ~9I8b 21.77GVNEOCPV00
     C0J6Q95  C2023 09 18.31882723 47 53.002+06 08 19.90   ~9I8b 21.53GVNEOCPV00
     C0J6Q95  C2023 09 18.32374023 47 51.688+06 08 17.34   ~9I8b 21.70GVNEOCPV00
     C0J6Q95  C2023 09 18.32434823 47 51.522+06 08 17.02   ~9I8b 21.82GVNEOCPV00
     C0J6Q95  C2023 09 18.32923823 47 50.194+06 08 14.46   ~9I8b 22.80GVNEOCPV00
     C0J6Q95  C2023 09 18.32984923 47 50.024+06 08 14.10   ~9I8b 22.05GVNEOCPV00
     C0J6Q95  C2023 09 18.33473723 47 48.718+06 08 11.44   ~9I8b 22.56GVNEOCPV00
     C0J6Q95  C2023 09 18.33534723 47 48.545+06 08 10.90   ~9I8b 21.95GVNEOCPV00
     C0J6Q95 KC2023 09 18.43425 23 47 21.90 +06 07 15.4    ~9ICM 22.2 RoNEOCP291
     C0J6Q95 KC2023 09 18.44030 23 47 20.30 +06 07 11.7    ~9ICM 22.2 RoNEOCP291
     C0J6Q95 KC2023 09 18.44637 23 47 18.60 +06 07 08.1    ~9ICM       oNEOCP291
     C0J6Q95 KC2023 09 19.21352323 43 54.084+05 59 10.93   ~9J67 21.80GVNEOCPI52
     C0J6Q95 KC2023 09 19.22437623 43 50.603+05 59 03.19   ~9J67 22.21GVNEOCPI52
     C0J6Q95 KC2023 09 19.23522023 43 47.150+05 58 55.99   ~9J67 21.39GVNEOCPI52
     C0J6Q95 1C2023 09 19.24065423 43 45.354+05 58 52.61   ~9J6b 21.95GVNEOCPG96
     C0J6Q95 1C2023 09 19.24586623 43 43.691+05 58 48.83   ~9J6b 21.20GVNEOCPG96
     C0J6Q95 1C2023 09 19.25108523 43 41.977+05 58 45.59   ~9J6b 21.68GVNEOCPG96
     C0J6Q95 1C2023 09 19.25629123 43 40.271+05 58 41.52   ~9J6b 21.05GVNEOCPG96
     C0J6Q95 1C2023 09 19.95008 23 39 49.47 +05 49 19.3    ~9K8b 20.5 VXNEOCP033
     C0J6Q95 1C2023 09 19.95286 23 39 48.38 +05 49 16.8    ~9K8b 20.7 VXNEOCP033
     C0J6Q95 1C2023 09 19.95564 23 39 47.32 +05 49 14.4    ~9K8b 20.7 VXNEOCP033
     C0J6Q95 KC2023 09 20C(?4t?*muMAstrometryk2spP9k(W:'i.OTkredacted;D]9Du=nH21
     C0J6Q95 KC2023 09 20p]yc9Nj+`Uj1Fshclick`T1hereH]forfm[IexplanationaZ)\wH21
     C0J6Q95 KC2023 09 20.25081 23 37 57.37 +05 45 10.5    ~9K77       oNEOCP291
     C0J6Q95 KC2023 09 20.25896 23 37 53.88 +05 45 03.6    ~9K77 20.6 RoNEOCP291
     C0J6Q95 KC2023 09 20.26716 23 37 50.39 +05 44 54.6    ~9K77 21.1 RoNEOCP291

Station data:
(033) Karl Schwarzschild Observatory, Tautenburg  (N50.980137 E11.711240)
   Germany.  Observer B. Stecklum. 1.34-m f/3 Schmidt + CCD.
(291) LPL/Spacewatch II  (N31.961669 W111.599905)  US/Arizona.  Observers J.
   V. Scotti, R. S. McMillan. 1.8-m f/2.7 reflector + CCD.
(G96) Mt. Lemmon Survey  (N32.442751 W110.788720)  US/Arizona.  Observer E.
   J. Christensen. 1.5-m reflector + 10K CCD.
(H21) Astronomical Research Observatory, Westfield  (N39.483054 W87.968270)
   US/Illinois.  Observer R. Holmes. Measurers S. Foglia, L. Buzzi, T.
   Linder, R. Holmes. 0.76-m f/3.0 astrograph + CCD0.81-m f/4.0 astrograph +
   CCD0.61-m f/4.5 astrograph + CCD0.40-m f/5.32 astrograph + CCD.
(I52) Steward Observatory, Mt. Lemmon Station  (N32.442544 W110.788920)
   US/Arizona.  Observers T. A. Pruyne, B. M. Africano, E. J. Christensen, G.
   A. Farneth, D. C. Fuls, A. R. Gibbs, A. D. Grauer, H. Gröller, J. A.
   Johnson, R. A. Kowalski, S. M. Larson, G. J. Leonard, D. Rankin, R. L.
   Seaman, F. C. Shelly, K. W. Wierzchoś. 1.0-m prime focus + CCD.
(V00) Kitt Peak-Bok  (N31.963125 W111.600190)  US/Arizona.  Observers T. A.
   Pruyne, B. M. Africano, E. J. Christensen, G. A. Farneth, D. C. Fuls, A.
   R. Gibbs, A. D. Grauer, H. Gröller, J. A. Johnson, R. A. Kowalski, S. M.
   Larson, G. J. Leonard, D. Rankin, R. L. Seaman, F. C. Shelly, K. W.
   Wierzchoś. 2.25-m reflector + 4x4K mosaic CCD.

Orbital elements:  C0J6Q95
   Perihelion 2023 Nov 11.79199 +/- 0.188 TT = 19:00:28 (JD 2460260.29199)
Epoch 2023 Sep 20.0 TT = JDT 2460207.5   Earth MOID: 0.0050   Ve: 0.0169
M 343.40903586 +/- 0.51             Ma: 0.0710                   AutoNEOCP
n   0.31427046 +/- 0.00858          Peri.  277.61419 +/- 0.020
a   2.14256332 +/- 0.039            Node   186.81243 +/- 0.017
e   0.7795734 +/- 0.00495           Incl.    3.78267 +/- 0.029
P   3.14                   H 25.85  G  0.15   U  9.5
q 0.47227794 +/- 0.002    Q 3.81284870 +/- 0.08           (J2000 ecliptic)
From 26 observations 2023 Sept. 18-20 (46.8 hr); mean residual 0".43
Residuals in arcseconds: 
230918 V00  .06-  .04-    230918 291  .11+  .28+    230919 033  .48+  .14-    
230918 V00  .37+  .16-    230918 291  1.0-  .26+    230919 033  .19+  .24-    
230918 V00  .44+  .06-    230919 I52  1.5-  .05+    230919 033  .36+  .23-    
230918 V00  .40+  .05-    230919 I52  .95-  .40-    230920 H21  .12+  .16+    
230918 V00  .19+  .05+    230919 I52  .24+  .27-    230920 H21  .31+  .00     
230918 V00  .10+  .02+    230919 G96  .04-  .05+    230920 291  .11-  .18+    
230918 V00  .23+  .03+    230919 G96  .64+  .18-    230920 291  .58-  .90+    
230918 V00  .10+  .17-    230919 G96  .66+  .16+    230920 291  .57-  .39-    
230918 291  .19-  .43+    230919 G96  .78+  .34-    

Ephemerides (geocentric):
Date (UTC) HH   RA             Dec           delta  r     elong  mag " sig PA
---- --------  ------------   ------------  ------ ------ -----  --- --------
2023 09 20 16  23 35 02.482   +05 38 50.96  .09198 1.0956 172.3 21.4 .444  22
2023 09 20 17  23 34 43.934   +05 38 05.75  .09142 1.0950 172.3 21.4 .464  25
2023 09 20 18  23 34 25.156   +05 37 19.91  .09085 1.0944 172.3 21.4 .487  28
2023 09 20 19  23 34 06.144   +05 36 33.42  .09028 1.0938 172.2 21.3 .513  31
2023 09 20 20  23 33 46.893   +05 35 46.28  .08971 1.0933 172.2 21.3 .541  34
2023 09 20 21  23 33 27.400   +05 34 58.46  .08914 1.0927 172.2 21.3 .572  37
2023 09 20 22  23 33 07.660   +05 34 09.97  .08858 1.0921 172.1 21.3 .605  39
2023 09 20 23  23 32 47.668   +05 33 20.78  .08801 1.0915 172.1 21.3 .642  42
2023 09 21 00  23 32 27.420   +05 32 30.88  .08744 1.0909 172.0 21.3 .681  44
2023 09 21 01  23 32 06.910   +05 31 40.26  .08688 1.0903 172.0 21.3 .723  46
2023 09 21 02  23 31 46.134   +05 30 48.91  .08631 1.0898 171.9 21.3 .769  48
2023 09 21 03  23 31 25.086   +05 29 56.80  .08574 1.0892 171.9 21.2 .817  50
2023 09 21 04  23 31 03.762   +05 29 03.93  .08518 1.0886 171.8 21.2 .868  52
2023 09 21 05  23 30 42.155   +05 28 10.27  .08461 1.0880 171.8 21.2 .923  53
2023 09 21 06  23 30 20.261   +05 27 15.81  .08405 1.0874 171.7 21.2 .980  55
2023 09 21 07  23 29 58.074   +05 26 20.55  .08348 1.0868 171.7 21.2 1.04  56
2023 09 21 08  23 29 35.588   +05 25 24.45  .08292 1.0863 171.6 21.2 1.11  57
2023 09 21 09  23 29 12.798   +05 24 27.50  .08235 1.0857 171.5 21.2 1.17  59
2023 09 21 10  23 28 49.696   +05 23 29.68  .08179 1.0851 171.5 21.1 1.24  60
2023 09 21 11  23 28 26.277   +05 22 30.99  .08123 1.0845 171.4 21.1 1.32  61
2023 09 21 12  23 28 02.535   +05 21 31.38  .08066 1.0839 171.3 21.1 1.40  62
2023 09 21 13  23 27 38.462   +05 20 30.86  .08010 1.0833 171.3 21.1 1.48  63
2023 09 21 14  23 27 14.053   +05 19 29.40  .07954 1.0828 171.2 21.1 1.57  64
2023 09 21 15  23 26 49.299   +05 18 26.97  .07898 1.0822 171.1 21.1 1.66  64
2023 09 21 16  23 26 24.195   +05 17 23.56  .07841 1.0816 171.0 21.1 1.75  65
2023 09 21 17  23 25 58.732   +05 16 19.14  .07785 1.0810 170.9 21.1 1.85  66
2023 09 21 18  23 25 32.904   +05 15 13.70  .07729 1.0804 170.8 21.0 1.95  66
2023 09 21 19  23 25 06.701   +05 14 07.21  .07673 1.0798 170.8 21.0 2.06  67
2023 09 21 20  23 24 40.118   +05 12 59.65  .07617 1.0793 170.7 21.0 2.17  68
2023 09 21 21  23 24 13.145   +05 11 50.99  .07561 1.0787 170.6 21.0 2.29  68
2023 09 21 22  23 23 45.773   +05 10 41.20  .07505 1.0781 170.5 21.0 2.41  69
2023 09 21 23  23 23 17.995   +05 09 30.27  .07449 1.0775 170.4 21.0 2.54  69
2023 09 22 00  23 22 49.801   +05 08 18.17  .07393 1.0769 170.3 21.0 2.67  70
2023 09 22 01  23 22 21.183   +05 07 04.86  .07337 1.0763 170.2 21.0 2.81  70
2023 09 22 02  23 21 52.130   +05 05 50.33  .07281 1.0757 170.1 20.9 2.96  71
2023 09 22 03  23 21 22.634   +05 04 34.53  .07226 1.0752 169.9 20.9 3.11  71
2023 09 22 04  23 20 52.684   +05 03 17.45  .07170 1.0746 169.8 20.9 3.26  71
2023 09 22 05  23 20 22.269   +05 01 59.05  .07114 1.0740 169.7 20.9 3.43  72
2023 09 22 06  23 19 51.381   +05 00 39.31  .07058 1.0734 169.6 20.9 3.60  72
2023 09 22 07  23 19 20.006   +04 59 18.18  .07003 1.0728 169.5 20.9 3.77  72
2023 09 22 08  23 18 48.136   +04 57 55.63  .06947 1.0722 169.4 20.9 3.96  73
2023 09 22 09  23 18 15.757   +04 56 31.63  .06892 1.0716 169.2 20.8 4.15  73
2023 09 22 10  23 17 42.858   +04 55 06.15  .06836 1.0711 169.1 20.8 4.34  73
2023 09 22 11  23 17 09.426   +04 53 39.15  .06781 1.0705 169.0 20.8 4.55  73
2023 09 22 12  23 16 35.450   +04 52 10.58  .06725 1.0699 168.8 20.8 4.77  74
2023 09 22 13  23 16 00.916   +04 50 40.41  .06670 1.0693 168.7 20.8 4.99  74
2023 09 22 14  23 15 25.811   +04 49 08.61  .06615 1.0687 168.5 20.8 5.22  74
2023 09 22 15  23 14 50.120   +04 47 35.12  .06559 1.0681 168.4 20.8 5.46  74